Regional Weather Roundup
Issued by NWS

Home | Current Version | Previous Version | Graphics & Text | Print | Product List | Glossary On
Versions: 1 2 3 4 5 6 7 8 9 10 11 12 13 14 15 16 17 18 19 20 21 22 23 24 25 26 27 28 29 30 31 32 33 34 35 36 37 38 39 40 41 42 43 44 45 46 47 48 49 50
281
ASUS45 KCYS 231410
RWRWY

WYOMING REGIONAL WEATHER ROUNDUP
NATIONAL WEATHER SERVICE CHEYENNE WY
800 AM MDT SUN JUL 23 2017

NOTE:  "FAIR" INDICATES FEW OR NO CLOUDS BELOW 12,000 FEET
WITH NO SIGNIFICANT WEATHER AND/OR OBSTRUCTIONS TO VISIBILITY.

WYZ001-231500-
YELLOWSTONE NATIONAL PARK

CITY           SKY/WX    TMP DP  RH WIND       PRES   REMARKS
LK YELLOWSTONE   N/A     49  42  77 CALM      30.41S
W YELLOWSTONE  NOT AVBL

$$
WYZ002>013-054>058-071-098>099-231500-
NORTHERN WYOMING

CITY           SKY/WX    TMP DP  RH WIND       PRES   REMARKS
JACKSON        SUNNY     50  39  66 CALM      30.33S
CODY           FAIR      69  38  32 W5        30.20S
GREYBULL       FAIR      60  44  55 SE3       30.12R
WORLAND        FAIR      64  38  38 SW5       30.13S
SHERIDAN       FAIR      63  45  51 CALM      30.12S
BUFFALO        FAIR      71  38  29 S5        30.18R
GILLETTE       FAIR      73  40  30 S17       30.14S
HULETT         FAIR      68  43  40 CALM      30.16S
NEWCASTLE      FAIR      68  41  37 CALM      30.17R

$$
WYZ014>020-022>026-101>103-231500-
CENTRAL WYOMING

CITY           SKY/WX    TMP DP  RH WIND       PRES   REMARKS
BIG PINEY      FAIR      51  37  58 CALM      30.34R
PINEDALE       FAIR      50  41  71 W6        30.35R
DUBOIS         FAIR      54  32  43 NW12      30.35S
LANDER         FAIR      65  38  36 CALM      30.23S
RIVERTON       FAIR      63  42  46 NW8       30.21S
CASPER         FAIR      65  37  35 SW3       30.21S
DOUGLAS        FAIR      64  48  56 NW7       30.20S

$$
WYZ021-027>030-104>119-231500-
SOUTHERN WYOMING

CITY           SKY/WX    TMP DP  RH WIND       PRES   REMARKS
EVANSTON       FAIR      60  35  39 NE6       30.32R
KEMMERER         N/A     54  36  50 N13       30.34R
FORT BRIDGER   FAIR      63  31  30 W5        30.34R
ROCK SPRINGS   FAIR      63  32  31 SE3       30.29S
RAWLINS        FAIR      63  37  38 CALM      30.31S
SARATOGA       FAIR      64  39  39 SE10      30.33S
LARAMIE        FAIR      60  43  53 S8        30.35R
CHEYENNE       FAIR      67  51  56 W3        30.27R
TORRINGTON     FAIR      66  53  63 CALM      30.13S
PINE BLUFFS    FAIR      68  46  45 SW7       30.21S

$$




USA.gov is the U.S. government's official web portal to all federal, state and local government web resources and services.